Tracking 17138 objects as of 2-July-2015
HD Live streaming from Space Station

SL-16 DEB

Track SL-16 DEB now!
10-day predictions
SL-16 DEB is classified as:


NORAD ID: 28354
Int'l Code: 2004-021C
Perigee: 848.1 km
Apogee: 1,178.8 km
Inclination: 71.0 °
Period: 105.3 minutes
Semi major axis: 7384 km
RCS: 0.0814 m2 (small)
Launch date: June 10, 2004
Source: Commonwealth of Independent States (former USSR) (CIS)

Note: This is SATELLITE DEBRIS
Your satellite tracking list
Your tracking list is empty





NASA's NSSDC Master Catalog

Two Line Element Set (TLE):
1 28354U 04021C   15182.43492253  .00000060  00000-0  10105-3 0  9994
2 28354 070.9572 027.1853 0223908 200.2353 158.9767 13.68135744551724

Source of the keplerian elements: AFSPC

N2YO: 281